Showing default

BEIDOU 3M10, 43582

Orbit data source: Space-Track

BEIDOU 3M10, 43582 is a payload satellite owned by CNSA (CN) in MEO that was launched on Sun, 29 Jul 2018 UTC via a CHANG ZHENG 3B/YZ-1 launch vehicle from the Xichang Space Center, China (XSC). Payload-class satellites include a variety of spacecraft equipped with specific instruments for various scientific and technological missions. These include communications satellites like Starlink; space stations such as the ISS; scientific satellites like the Hubble; Earth observation satellites from companies like Planet Labs, Umbra, and HawkEye 360; GPS; miniature CubeSats for education and research; and military/defense satellites.

Loading next visibility...
Identifier
43582, 2018-062B
Orbit
MEO
Last TLE update
1 day ago
Origin
Manufacturer
CAST
Mission
Operational Defense Navigation
Bus & Motor
BD-3M, Unknown motor
Mass
1,014 kg wet, ~850 kg dry
Launch date (UTC)
2018-07-29 (7 years ago)
Launch vehicle
CHANG ZHENG 3B/YZ-1
Launch site
Xichang Space Center, China (XSC)
Object type
Payload
Rocket body
Debris
Shape & HBR
Box + 2 Pan, 10 m
Radar Cross Section
8.984 m², Large (>1 m²)

Expand to show TLE details & history

TLE from 1 day ago
0 BEIDOU 3M10
1 43582U 18062B   25190.93012304  .00000092  00000-0  00000-0 0  9999
2 43582  54.1005 193.9289 0004699   1.8255 358.2003  1.86229718 47263
Epoch: 2025-07-09T22:19Z
TLE epoch observation values (Epoch: 2025-07-09T22:19:22.63Z)
Latitude
-0.00001°
Longitude
-69.01571°
Altitude
21,515.333 km
Speed
3.781 km/s
True Right ascension
12h 55m 43s
True Declination
0° 00' 00"
Sunlit
Object was in daylight at epoch
Visualization orbit readout
Latitude
-37.34304°
Longitude
144.45199°
Altitude
21,549.528 km
Speed
3.778 km/s
Apparent Right ascension
03h 57m 11s
Apparent Declination
-41° 48' 18"
Sunlit
Object is in daylight
Visualization observer readout
Local Sidereal Time
20:33:58
Azimuth
116.101° SE
Elevation
-39.11°
Doppler factor
1
Orbital elements
Apogee altitude
21,541.335 km
Perigee altitude
21,515.108 km
Semi-major axis
27,906.359 km
Eccentricity
0.00047
Inclination
54.1005°
RAAN
193.9289°
Arg. of periapsis
1.8255°
True anomaly
Unknown
Mean anomaly
358.2003°
Eccentric anomaly
Unknown
Mean motion
0.46557 °/min
Orbital period
773.24 mins
BSTAR
0
Loading maneuver chart data...
Loading SW <> Apogee altitude chart data...
Loading historical data...
Loading historical data...
Loading historical data...
Loading historical data...
Loading historical data...
Loading historical data...
Loading historical data...
Other satellites on launch #62 in the year 2018 (2018-07-29 UTC)

BEIDOU 3M10 Visibility forecast

Observer location: undefined°, undefined°

Span
Click to sort rows by Start time (UTC) header in descending order
Start Az.
Max El. time (UTC)
Max El. Az.
Max El.
End time (UTC)
End Az.
437 mins2025-07-12 00:48:27.235Z201.762° SSW2025-07-12 03:58:27.235Z310.297° NW44.697°2025-07-12 08:05:27.235Z103.752° ESE
|